Wind_Speed
24 23 23 24 25 25 24 23 21 21 21 22 23 23 23 22 20 19 17 15 13 11 10 9 8 8 7 7 8 8 8 9 9 9 9 9 9 9 9 9 10 10 11 11 12 13 14 15 16 16 16 16 17 17 17 17 18 19 19 20 21 22 23 23 24 25 25 25 24 23 22 21 20 19 18 17 16 16 15 15 15 14 14 13 12 12
24 24 24 25 25 25 23 22 20 20 21 22 23 23 22 21 19 18 16 14 12 11 10 9 8 7 7 7 8 8 9 9 9 10 10 10 10 10 9 8 8 8 8 9 10 10 11 12 13 14 15 15 16 16 17 17 18 18 19 20 21 22 23 24 25 25 25 24 23 22 21 20 20 19 18 17 16 15 15 15 15 14 14 13 12 12
25 25 26 25 25 23 22 21 20 20 21 21 22 21 21 19 19 17 15 13 11 10 10 9 8 8 7 8 9 9 9 9 10 10 10 11 10 10 9 9 8 8 8 8 9 9 10 11 12 13 14 15 16 17 17 18 19 19 20 21 22 23 24 24 23 23 23 22 21 21 20 20 19 18 17 16 15 15 14 14 14 14 13 13 12 12
26 26 26 24 23 22 22 21 21 21 21 21 21 20 20 19 18 16 14 12 11 10 10 9 8 8 8 9 9 10 10 10 10 10 11 11 11 11 10 10 9 9 9 10 10 11 11 12 13 14 15 16 17 18 18 19 20 20 21 22 22 22 22 22 21 21 20 20 20 20 20 19 19 18 17 16 15 14 14 14 14 13 13 13 13 12
26 25 24 23 22 21 21 21 21 21 21 20 20 19 19 18 17 15 14 12 11 11 10 9 9 9 9 10 10 11 11 11 11 11 11 11 11 11 11 11 10 11 11 11 12 12 13 14 15 16 16 17 18 18 19 20 20 20 20 20 20 20 20 20 19 19 19 19 19 19 19 19 18 17 17 16 15 15 14 14 13 13 13 13 13 13
24 23 22 21 21 21 21 20 20 20 20 20 19 19 18 17 16 15 13 12 11 11 11 10 10 10 10 10 11 11 12 12 12 12 12 11 11 11 11 11 11 11 12 12 13 13 14 15 15 16 17 17 18 18 18 18 19 19 18 18 18 18 18 18 18 18 19 19 19 18 18 18 17 17 16 16 15 15 14 14 14 14 14 14 14 14
22 21 21 20 20 20 20 19 19 19 19 19 19 18 17 16 15 14 13 12 11 11 11 11 11 11 11 11 12 12 13 13 13 13 13 12 12 12 12 12 12 12 12 13 13 13 14 14 15 15 16 16 17 17 17 17 17 17 17 17 17 18 18 18 18 18 18 18 18 18 17 17 17 16 16 16 16 15 15 15 15 14 14 14 14 15
20 21 21 20 20 19 19 19 19 19 19 19 18 17 16 15 14 14 13 12 12 11 11 11 12 12 12 12 13 13 13 14 14 14 14 13 13 13 13 13 13 13 13 13 14 14 14 14 15 15 15 16 16 16 17 17 17 17 17 17 17 17 18 18 18 18 18 18 17 17 17 17 17 16 16 16 16 16 16 15 15 15 15 15 15 15
20 20 20 19 19 18 18 18 18 18 18 18 17 17 15 15 14 13 13 12 12 12 12 12 12 13 13 13 13 13 14 14 15 14 14 14 14 14 14 14 14 14 14 14 14 14 14 15 15 15 15 16 16 16 16 16 17 17 17 17 17 17 17 17 18 18 18 17 17 17 17 17 17 16 16 16 16 16 16 15 15 15 15 15 15 15
20 19 19 19 18 18 17 18 18 18 18 17 17 16 15 14 14 13 13 12 12 12 12 13 13 14 14 14 14 14 15 15 15 15 14 14 14 14 14 14 14 14 14 14 14 14 15 15 15 15 15 15 16 16 16 16 16 16 16 17 17 17 17 17 17 18 18 17 17 17 17 17 17 16 16 16 16 16 15 15 15 14 14 14 14 14
19 19 19 18 18 18 18 18 18 18 17 16 16 16 15 15 14 13 12 12 13 13 13 14 15 15 15 15 15 15 15 15 15 15 15 14 14 14 14 14 14 14 14 14 14 14 14 14 15 15 15 15 15 16 16 16 16 16 17 17 17 17 17 18 18 18 18 17 17 17 17 17 16 16 16 15 15 15 14 14 14 13 13 13 13 12
19 19 19 18 18 18 18 18 18 18 17 16 15 15 15 14 14 13 13 13 13 13 14 15 16 16 16 15 16 16 16 16 15 15 14 14 14 13 13 13 13 13 13 13 14 14 14 14 15 15 15 15 15 16 16 16 16 17 17 17 17 17 18 18 18 18 17 17 17 17 16 16 16 15 15 14 14 14 13 13 13 12 12 12 11 10
19 19 19 19 19 18 18 18 18 17 16 16 15 14 14 14 13 13 13 13 14 14 15 16 17 17 17 16 16 16 16 15 15 15 14 14 14 14 13 13 13 13 13 13 13 13 14 14 14 15 15 15 16 16 16 16 17 17 17 17 17 17 18 17 17 17 17 16 16 16 15 15 14 14 14 13 13 13 12 12 11 11 10 10 9 8
18 18 18 19 18 18 18 17 17 16 16 15 14 14 13 13 13 13 13 14 15 16 16 17 17 17 17 16 16 15 15 15 15 14 14 14 14 14 13 13 13 13 13 13 13 13 14 14 14 15 15 15 16 16 16 16 16 16 16 17 17 17 17 16 16 16 15 15 15 14 14 13 13 13 12 12 12 11 11 10 10 9 9 8 7 7
18 18 18 18 18 17 17 17 16 16 15 14 14 14 14 14 14 14 15 15 16 17 17 17 17 17 17 16 16 15 15 15 14 14 14 13 13 14 13 13 13 13 13 13 13 13 14 14 15 15 15 15 15 16 16 16 15 15 15 15 16 16 15 15 15 14 14 13 13 12 12 12 11 11 11 11 10 10 10 9 9 8 7 7 6 6
17 17 17 17 17 16 16 16 16 15 15 14 14 14 14 14 15 16 16 17 17 18 17 17 17 16 16 16 15 15 15 15 14 14 13 13 13 14 13 13 13 13 12 12 12 13 14 14 14 15 15 15 15 15 15 14 14 14 14 14 14 14 14 13 13 13 12 12 11 11 10 10 10 10 9 9 9 8 8 8 7 7 6 6 6 6
16 16 16 16 16 15 15 15 15 15 15 15 14 14 14 15 15 16 17 17 18 18 18 17 17 16 16 15 15 15 14 14 14 13 13 13 13 13 13 13 13 13 12 12 12 12 13 13 14 14 13 13 13 13 13 13 12 12 12 13 13 13 12 12 11 11 10 10 10 9 9 9 8 8 8 8 7 7 7 6 6 6 6 6 6 6
15 15 15 15 15 15 15 15 15 15 15 15 15 15 15 16 16 17 17 18 18 18 18 17 17 17 17 16 15 14 14 14 14 13 13 12 13 13 14 14 14 13 12 12 12 12 12 12 12 12 12 12 12 12 12 11 11 11 12 12 12 11 11 10 10 9 9 8 8 8 8 7 7 7 6 6 6 6 5 5 5 5 6 6 6 6
14 14 14 14 14 15 15 15 15 15 15 15 16 16 16 16 16 16 17 17 17 17 17 17 17 17 16 15 15 14 14 14 14 14 13 12 12 13 14 14 14 13 12 11 11 11 12 12 11 11 11 11 11 11 11 11 11 11 11 11 11 10 10 9 9 8 8 7 7 7 6 6 6 6 5 5 5 5 5 5 5 6 6 6 6 6
14 14 14 14 14 15 15 15 15 15 15 16 16 16 16 16 16 16 16 16 17 17 16 16 16 16 15 15 14 14 14 14 14 14 14 13 12 12 14 14 14 13 12 11 11 11 11 11 11 11 11 10 10 10 10 10 11 11 11 10 10 9 9 8 8 7 7 6 6 6 6 6 5 5 5 5 5 5 5 5 5 6 6 6 6 7
13 14 14 14 14 15 15 15 16 15 15 16 16 16 16 16 15 15 16 16 16 15 15 15 15 15 15 14 14 14 13 13 14 14 14 13 12 12 13 13 13 12 11 10 10 11 11 10 10 10 10 10 10 10 10 10 10 10 10 10 9 8 8 7 7 6 6 6 6 6 6 6 5 5 5 5 5 5 5 6 6 6 6 7 7 7
13 14 14 15 15 15 16 16 16 16 15 15 15 15 15 15 15 15 15 15 15 14 14 14 14 14 14 13 13 13 13 13 13 13 13 12 11 11 12 12 11 10 10 9 10 11 11 10 10 10 9 9 9 10 10 10 10 10 10 9 8 8 7 7 6 6 6 6 6 6 6 6 6 6 6 6 6 6 6 6 6 7 7 7 7 8
14 14 15 15 16 16 16 16 16 16 15 15 15 15 15 15 15 15 15 14 14 14 13 13 13 13 13 13 13 13 12 12 12 12 12 11 10 10 11 11 10 9 9 9 10 10 10 10 10 9 9 9 9 10 10 10 10 9 9 8 8 7 7 7 6 6 6 6 6 6 6 6 6 6 6 6 6 6 7 7 7 7 7 8 8 8
14 15 15 16 16 16 16 16 16 16 15 15 15 15 15 15 15 15 15 14 14 14 14 13 13 13 13 13 13 12 12 11 11 11 11 10 10 9 10 10 10 9 9 9 9 10 10 10 9 9 8 8 9 9 10 10 9 9 8 8 8 7 7 7 7 7 7 7 7 7 7 7 7 7 7 7 7 7 7 7 7 8 8 8 9 9
15 16 16 16 16 16 16 16 16 16 16 15 15 15 15 15 15 15 14 14 14 13 13 13 13 12 12 12 12 12 11 11 10 11 11 10 9 9 10 10 9 9 8 9 10 10 9 9 9 8 8 8 9 9 9 9 9 8 8 8 8 8 7 7 7 7 7 7 7 7 7 7 7 7 7 7 7 7 7 8 8 8 8 9 9 9
16 16 16 16 17 17 17 17 17 16 16 15 15 15 14 14 14 14 14 13 13 13 13 13 12 12 12 12 11 11 11 11 10 10 10 10 9 9 10 10 10 9 9 9 9 9 9 9 8 8 8 8 8 9 8 8 8 8 8 8 8 8 8 8 8 8 8 8 8 8 8 8 8 8 8 8 8 8 8 8 8 9 9 9 10 10
16 16 16 17 17 16 16 16 16 16 15 15 14 14 14 13 13 13 13 13 13 13 13 12 12 11 11 11 11 11 10 10 10 10 10 10 9 9 10 10 10 9 9 9 9 9 9 8 8 8 8 8 8 8 8 8 8 8 8 8 8 8 8 8 8 8 8 8 8 8 8 8 8 8 8 8 8 8 8 9 9 9 10 10 10 10
16 16 16 16 16 16 16 15 15 15 14 14 14 13 13 13 13 13 13 13 13 12 12 12 11 11 10 10 10 10 10 9 9 9 10 10 9 9 9 10 10 9 8 8 9 10 9 9 8 8 8 7 7 7 8 8 8 8 9 9 9 9 9 9 9 9 9 9 9 9 9 9 9 9 9 9 9 9 9 9 10 10 10 11 11 11
15 16 15 15 15 15 14 14 14 13 13 13 13 13 13 12 13 13 13 13 13 12 12 12 11 10 10 9 9 9 9 9 9 9 9 10 9 9 9 10 9 9 8 8 8 9 9 8 8 7 7 7 7 7 8 8 8 9 9 9 9 9 9 10 10 10 10 10 10 9 9 9 9 9 9 9 9 9 10 10 10 11 11 11 11 12
14 14 14 14 13 13 13 13 12 12 12 12 12 12 12 12 12 13 13 13 13 12 12 12 11 10 10 10 9 9 9 9 9 9 10 10 9 9 9 9 9 9 9 8 8 8 8 8 7 7 7 7 7 7 8 8 8 9 9 9 9 10 10 10 10 10 10 10 10 10 10 10 10 10 10 10 10 10 10 10 11 11 12 12 12 12
13 12 12 12 12 12 12 12 12 11 11 11 11 11 11 11 12 13 13 13 12 12 12 12 11 11 10 10 10 9 9 8 9 10 10 10 10 10 10 9 9 9 9 8 8 7 7 7 6 6 6 7 7 8 8 9 9 9 9 9 10 10 10 10 10 11 11 10 10 10 10 10 10 10 11 10 11 11 11 11 12 12 12 13 13 13
12 12 11 11 11 11 11 11 11 10 10 10 10 10 10 11 11 12 12 12 12 11 11 11 11 11 11 10 10 9 8 9 9 10 11 11 11 11 10 10 10 10 9 9 9 8 7 7 6 6 6 7 8 8 9 9 9 9 9 10 10 10 11 11 11 11 11 11 11 11 11 11 11 11 11 11 11 11 12 12 12 13 13 13 14 14
11 11 11 11 11 11 10 10 10 9 9 9 9 9 10 10 11 11 11 11 11 11 11 11 11 11 11 10 10 9 9 10 11 11 11 12 12 11 10 10 10 10 9 9 9 9 8 8 7 7 7 7 8 9 10 10 10 10 10 10 11 11 11 11 11 11 11 11 11 11 11 11 12 12 12 12 12 12 12 13 13 13 14 14 14 15
11 10 10 10 10 10 10 9 9 9 9 9 9 9 9 10 10 11 11 11 11 11 11 11 11 11 11 10 10 9 9 11 12 12 12 12 12 11 10 9 9 9 10 10 10 10 10 9 8 8 7 7 8 9 10 10 10 10 10 10 11 11 12 12 12 12 12 12 12 12 12 12 12 12 12 12 13 13 13 13 13 14 14 14 15 15
10 9 9 9 9 9 9 9 8 8 8 8 9 9 9 10 10 11 11 11 11 11 11 11 11 11 11 11 10 10 10 11 12 13 12 12 12 11 10 10 9 9 10 10 10 10 10 10 9 9 8 7 7 8 10 10 10 10 10 11 11 11 11 12 12 12 12 12 12 12 12 12 13 13 13 13 13 13 13 13 14 14 15 15 16 16
8 8 8 8 8 8 8 8 7 7 7 8 8 9 9 10 10 11 11 11 11 11 11 11 11 11 11 11 11 10 11 12 13 13 12 12 12 11 11 10 10 10 10 11 11 11 11 11 11 10 9 8 7 7 8 10 10 10 10 11 11 11 11 12 12 12 12 12 12 13 13 13 13 13 13 13 13 14 14 14 14 15 15 16 16 17
7 6 7 7 7 7 7 7 6 6 7 7 8 9 9 10 10 11 11 11 11 11 11 11 12 12 12 12 11 11 12 13 13 13 12 12 12 12 12 11 10 10 11 12 12 12 12 12 12 11 10 9 8 8 8 9 10 10 10 11 11 12 12 12 13 13 13 13 13 13 13 13 14 14 14 14 14 14 15 15 15 16 16 17 17 18
7 7 7 7 7 7 7 7 7 7 7 8 9 9 10 10 10 11 11 11 11 11 12 12 12 12 12 12 12 12 12 13 13 13 12 12 12 12 12 11 11 11 11 12 13 13 13 13 13 12 11 10 9 9 8 9 10 10 11 12 12 12 13 13 14 14 14 14 14 14 14 14 15 15 15 15 15 16 16 16 17 17 17 18 18 19
7 7 7 8 8 8 8 8 7 8 8 9 9 10 10 10 10 10 11 11 11 12 12 12 12 12 12 12 12 12 13 13 13 13 12 12 12 12 12 11 11 11 11 12 13 13 13 14 13 13 12 11 11 10 10 10 10 10 11 12 12 13 13 14 15 15 15 15 15 15 15 16 16 16 16 16 17 17 17 17 18 18 18 19 19 19
8 7 8 8 8 9 8 8 8 8 9 9 10 10 10 10 10 10 11 11 11 12 12 12 13 13 12 12 12 12 12 13 13 13 13 12 12 12 12 12 11 11 12 12 13 13 14 14 14 14 14 13 12 11 10 10 10 10 11 12 12 12 13 14 15 15 16 16 16 16 16 16 16 17 17 17 17 17 18 18 18 19 19 19 19 20
8 8 8 8 9 9 9 8 8 9 9 10 10 10 10 10 10 10 11 11 11 12 12 12 13 13 12 12 12 12 12 13 13 13 13 13 12 12 12 12 12 12 12 13 13 14 14 14 14 14 14 14 14 13 12 11 10 10 11 11 11 12 13 14 14 15 15 16 16 16 16 16 16 17 17 17 18 18 18 19 19 19 19 20 20 20
8 8 8 9 9 9 9 8 8 9 9 9 10 10 10 10 10 11 11 11 11 12 12 12 13 13 12 12 12 12 12 13 13 13 13 13 13 12 12 12 12 12 13 14 14 14 14 15 15 15 15 15 16 15 14 12 10 10 10 11 12 12 13 13 13 14 15 15 16 16 16 16 17 17 17 18 18 18 18 18 19 19 20 20 21 21
8 8 8 9 9 9 8 8 8 9 9 9 10 10 10 11 11 11 11 11 11 12 12 13 13 13 12 12 12 12 12 13 13 13 13 13 13 13 13 13 13 13 14 15 15 15 15 15 15 16 15 16 17 17 16 14 11 10 10 10 11 12 12 12 13 14 15 15 16 16 16 17 17 17 18 18 18 18 18 18 19 19 20 20 21 22
8 8 9 9 9 9 9 8 9 9 9 10 10 10 11 11 11 11 11 11 12 12 13 13 13 13 12 12 11 12 12 13 13 13 13 13 13 13 13 13 14 14 15 15 16 16 16 16 16 16 16 17 18 18 17 15 13 11 10 11 12 13 13 13 13 13 14 15 16 16 17 17 17 18 18 17 17 17 18 18 19 19 20 20 21 22
8 9 9 9 9 9 9 9 9 9 10 10 10 10 11 11 11 11 11 11 11 12 13 13 13 13 12 11 11 12 13 13 14 13 13 14 14 14 14 14 15 15 16 16 16 17 17 17 17 17 17 18 19 19 18 17 15 13 12 12 13 14 15 15 14 14 14 15 16 16 17 17 17 17 17 17 17 17 17 18 18 19 19 20 21 21
9 9 9 9 9 9 9 9 9 9 9 9 9 10 10 11 11 11 11 11 12 12 13 13 13 13 12 11 11 12 13 13 14 14 14 14 14 14 14 15 15 16 16 16 17 17 18 18 18 18 19 19 20 19 18 17 16 15 14 14 14 15 15 15 14 14 15 15 16 16 17 17 17 17 17 17 16 17 17 17 18 18 19 19 20 20
9 9 10 10 10 10 9 9 9 9 9 9 9 10 10 11 11 11 11 11 11 12 12 13 13 13 12 12 12 12 13 14 14 15 15 15 15 15 15 15 15 16 16 17 17 18 18 19 19 19 20 20 21 20 19 17 17 16 16 15 15 16 15 15 14 14 15 16 16 16 17 17 17 17 17 17 17 17 17 17 17 18 18 19 19 19
10 10 10 10 10 10 10 10 10 10 9 9 9 9 10 11 11 11 11 11 12 12 12 13 13 13 13 12 12 13 13 14 14 15 15 15 15 15 15 15 16 16 17 17 18 18 19 19 20 20 20 21 21 21 19 18 17 16 16 16 16 16 16 15 14 14 15 15 16 17 17 17 17 17 17 17 17 17 17 17 17 18 18 18 18 18
11 11 11 11 11 11 11 10 10 10 10 9 9 10 10 11 11 11 11 11 12 12 13 13 13 13 13 13 13 13 13 14 14 14 15 15 15 15 15 16 16 16 17 17 18 18 19 20 20 21 20 20 21 20 20 18 17 16 16 17 17 16 16 15 14 14 15 15 16 17 17 17 17 17 17 18 18 18 18 18 18 18 18 18 18 17
12 12 12 12 12 11 11 11 11 11 10 10 10 10 10 11 11 11 11 11 12 12 13 13 13 13 13 13 13 13 13 14 14 14 14 14 15 15 15 16 16 16 17 17 18 19 19 20 21 21 20 20 19 19 19 18 17 16 16 16 16 16 15 15 15 15 15 16 17 17 18 18 17 17 17 18 18 18 18 18 18 18 18 18 18 18
13 13 13 13 13 12 12 12 12 12 11 11 11 11 11 11 11 11 11 12 12 12 12 12 13 13 13 12 12 13 13 13 14 14 14 14 15 15 15 16 16 16 17 17 18 18 19 20 21 20 19 18 17 17 17 17 17 16 16 15 15 15 15 15 15 16 16 17 18 18 18 18 17 17 17 17 18 18 19 19 19 19 19 19 19 19
Wind_Direction
248 252 258 262 263 263 264 266 268 271 274 277 281 284 285 286 285 284 282 279 273 265 258 254 254 255 259 262 265 267 271 273 275 275 274 273 272 271 269 265 260 256 252 249 247 247 246 246 245 245 245 245 246 246 248 250 252 254 256 259 261 264 267 269 273 276 279 281 283 283 284 283 283 284 284 285 285 285 285 286 286 285 284 283 281 277
248 252 256 259 260 261 263 266 269 271 273 277 280 282 283 283 282 280 279 274 267 258 252 250 251 253 257 260 264 268 271 274 275 276 275 276 277 277 278 275 271 264 258 253 249 247 246 247 247 248 249 250 251 253 254 256 257 259 261 263 265 268 270 272 274 277 278 279 280 281 281 281 281 282 282 282 281 280 280 280 281 281 281 281 279 277
248 251 253 256 258 260 264 268 271 273 274 276 278 280 280 279 278 276 274 268 260 253 248 248 250 253 256 260 263 267 271 274 275 275 276 278 279 280 281 280 277 272 266 261 256 253 252 252 252 253 254 255 257 258 259 260 262 263 265 266 268 270 272 274 275 276 277 278 278 278 278 278 278 279 279 278 277 276 276 275 276 277 277 277 276 275
248 250 253 256 260 263 266 269 271 273 274 274 275 275 275 274 273 271 268 261 253 249 247 249 252 256 260 263 267 270 273 275 276 277 277 278 280 280 280 279 277 274 271 268 265 262 261 260 259 259 260 260 261 262 263 264 265 266 267 268 270 271 273 274 275 276 276 276 276 276 275 276 276 277 277 276 276 275 275 274 274 274 274 274 274 272
248 251 255 259 262 265 267 269 270 271 272 271 271 270 270 269 267 265 261 255 249 246 248 251 255 259 263 267 271 274 277 278 278 278 277 277 277 277 276 274 273 271 270 268 266 265 264 263 262 262 262 262 263 263 264 265 266 267 268 269 270 271 273 274 275 275 275 275 274 274 274 274 274 275 275 275 276 275 276 275 275 275 274 273 273 271
251 254 258 261 264 266 267 268 269 269 269 269 267 266 264 263 260 258 254 250 247 247 251 255 258 262 265 269 273 276 278 278 278 278 276 274 272 271 269 268 267 265 265 264 263 262 262 262 262 262 262 262 263 264 264 265 266 267 268 269 270 272 272 273 274 274 274 273 272 272 272 273 273 274 274 275 275 275 276 276 276 275 274 273 272 271
255 258 261 263 265 266 267 266 266 266 267 266 265 263 259 257 254 251 248 247 246 249 254 259 263 265 268 271 274 276 277 278 277 276 274 272 270 268 266 264 263 262 262 261 261 261 261 261 261 262 263 263 264 265 265 266 267 268 269 270 271 271 272 272 272 272 271 271 270 270 271 271 272 273 273 274 274 275 275 276 276 276 275 274 272 270
258 260 262 263 264 264 264 264 264 264 263 262 261 258 255 252 249 246 245 246 247 251 256 261 266 269 272 274 276 277 277 276 275 274 273 272 270 268 267 266 265 265 264 264 264 264 264 264 264 265 265 266 266 267 268 269 269 270 270 270 270 270 270 270 270 270 269 269 269 269 270 270 271 272 272 273 274 274 275 275 275 275 275 274 272 270
259 261 262 262 262 262 263 263 262 261 259 257 255 252 249 247 246 245 246 248 251 254 259 263 268 271 274 276 277 277 276 275 273 272 272 271 270 269 268 268 268 268 268 268 268 268 268 268 267 267 268 268 268 269 269 270 270 270 270 270 270 269 269 269 269 269 269 269 269 270 270 270 271 272 272 273 273 274 274 274 274 274 274 273 272 270
259 259 260 260 260 260 261 261 260 257 253 251 248 246 244 243 244 246 249 251 255 259 263 267 270 273 275 276 276 275 274 273 272 272 271 270 269 268 268 268 268 268 268 269 269 269 269 268 268 268 268 268 269 269 270 270 270 270 270 269 269 269 269 269 269 269 270 270 271 271 271 272 272 272 273 273 274 274 274 274 274 273 272 272 271 269
256 256 257 258 257 257 256 255 254 251 248 245 243 242 242 241 243 246 251 255 259 263 267 270 273 274 275 276 275 274 273 273 273 272 272 270 269 267 266 266 266 266 266 267 267 267 267 267 267 267 267 268 268 269 269 270 270 270 270 270 270 270 270 270 271 271 272 272 273 273 273 273 273 274 274 275 275 275 275 274 274 272 271 270 269 267
254 254 255 256 255 254 252 249 247 246 243 240 238 238 240 241 244 247 252 258 262 266 269 272 274 276 276 275 275 275 275 274 274 274 275 274 273 271 270 268 267 266 266 266 266 266 266 266 266 267 267 268 268 269 270 271 271 271 272 271 272 272 272 272 273 274 274 274 275 275 275 275 276 276 277 277 277 277 276 275 274 272 270 268 266 263
252 253 253 253 251 249 247 245 243 241 240 238 238 239 242 245 248 251 254 260 264 266 269 273 275 276 277 276 275 275 275 275 275 275 275 275 275 275 274 274 273 272 271 270 269 268 268 267 267 268 268 268 269 270 271 272 272 273 273 274 274 274 274 275 275 276 276 276 276 276 277 277 277 278 279 279 278 278 277 275 273 270 267 264 260 255
250 250 250 248 246 244 242 240 239 238 238 238 239 241 244 249 253 256 260 263 265 268 271 272 274 275 276 276 275 275 275 274 275 275 275 274 274 274 275 275 275 275 275 274 273 271 270 269 269 269 270 270 271 271 272 273 273 274 274 275 275 275 276 276 277 277 277 277 277 277 278 278 279 280 280 280 279 278 276 273 270 266 262 257 251 243
248 247 245 244 242 240 238 237 237 237 238 239 240 242 247 252 257 261 265 267 268 270 272 273 273 273 273 273 273 274 274 273 273 273 274 273 273 273 273 273 273 272 272 271 270 270 270 270 269 269 270 271 272 272 273 273 273 274 274 274 275 275 276 276 276 276 276 276 277 278 279 279 280 280 280 279 278 275 273 269 264 259 253 246 238 230
245 243 242 240 239 237 235 234 234 236 238 240 242 246 250 256 262 266 269 271 272 273 273 272 270 269 269 270 271 272 272 271 271 271 271 271 273 274 273 272 270 269 268 267 266 267 268 268 268 269 270 271 272 272 273 273 273 273 272 272 273 274 274 275 275 275 276 277 278 279 279 280 281 280 279 277 275 271 267 262 257 250 243 233 225 218
241 239 238 237 236 235 234 234 235 237 240 243 247 251 256 261 266 269 271 272 273 273 273 272 270 268 267 267 267 269 270 270 270 269 268 268 270 273 273 271 270 269 269 268 268 267 268 268 268 269 270 271 271 271 272 272 272 271 270 270 271 271 272 272 273 274 275 276 278 279 279 280 279 277 275 272 268 264 258 252 245 239 232 223 216 210
237 236 235 234 234 235 236 236 238 241 245 249 253 257 261 264 266 268 270 271 272 272 272 272 271 270 270 268 266 266 268 268 268 268 267 265 267 271 272 272 272 272 273 273 272 271 269 269 269 270 270 270 270 270 270 270 269 268 268 268 268 269 269 270 271 271 273 274 275 276 276 276 274 271 268 264 259 254 247 240 233 228 223 219 214 210
235 235 234 235 236 238 240 242 245 249 253 257 260 263 265 266 266 266 267 268 269 270 270 271 271 271 271 270 268 267 268 268 268 268 266 264 264 267 271 272 273 275 277 277 275 272 271 270 270 270 269 269 269 268 268 267 266 265 266 265 265 266 266 266 267 267 268 268 269 269 269 267 265 261 257 252 247 241 235 230 225 223 220 218 217 215
235 236 237 238 241 244 248 251 255 258 261 264 266 267 267 267 267 266 265 266 267 268 269 269 270 270 270 270 268 267 268 268 268 267 266 264 263 264 267 270 273 276 278 277 274 272 271 270 270 269 269 268 267 266 265 264 263 263 263 262 262 262 262 262 262 261 260 260 259 258 257 255 252 249 244 240 235 231 228 224 223 221 221 221 222 222
238 241 244 246 250 254 258 261 264 266 267 269 269 269 268 268 267 266 265 265 266 266 268 268 268 268 269 269 267 266 267 267 267 267 267 265 263 263 264 267 270 273 275 273 271 269 269 269 268 268 267 266 265 263 262 261 260 260 260 259 259 258 257 255 254 252 251 249 248 246 245 243 241 238 235 232 229 227 225 224 223 223 224 226 227 229
246 250 254 257 260 262 265 268 269 269 269 269 269 268 268 268 267 266 265 264 264 264 265 265 265 266 267 267 266 266 266 265 265 266 267 266 264 263 264 266 268 269 269 268 267 267 267 267 266 265 264 263 261 259 258 257 257 257 257 256 255 254 252 249 246 243 241 240 239 238 237 235 233 231 230 229 227 226 225 226 227 228 229 231 233 235
252 256 260 263 265 267 268 269 269 268 268 267 267 266 266 265 265 264 263 262 261 260 260 260 261 263 265 266 266 267 266 266 266 266 266 265 263 263 264 265 266 267 266 264 264 264 265 265 264 262 260 258 255 254 253 253 254 254 254 254 252 250 247 244 240 237 236 234 233 233 233 232 230 229 228 228 227 227 228 228 230 231 234 236 238 241
257 260 262 264 266 267 268 268 267 267 266 265 263 262 261 261 260 260 260 259 259 259 259 259 260 261 262 264 265 266 267 268 267 266 264 263 262 262 264 265 266 265 264 262 261 261 262 263 262 260 256 252 250 249 249 249 250 251 251 250 248 246 243 240 237 235 234 233 232 232 232 231 231 230 230 229 229 230 231 232 233 235 237 240 242 245
261 262 263 264 265 266 266 266 266 266 265 263 261 260 258 258 257 257 257 257 257 258 258 258 258 257 258 260 263 265 266 267 266 265 264 263 262 261 263 264 264 264 263 262 260 259 259 260 258 256 251 248 247 247 247 247 248 248 247 246 244 243 240 238 237 235 234 233 233 233 233 233 233 232 232 233 233 234 235 236 238 239 241 243 246 248
263 263 263 263 263 264 264 265 264 264 263 262 260 259 257 256 256 256 256 256 256 257 257 257 257 257 257 259 260 262 263 265 265 265 264 264 261 259 262 263 263 261 260 261 261 259 258 257 255 252 249 247 247 247 247 247 246 245 244 242 241 240 239 237 236 235 235 234 234 234 235 235 235 236 236 237 237 238 239 241 242 244 246 248 250 252
263 262 262 262 262 262 262 262 262 262 261 260 259 257 256 256 256 256 256 256 257 257 258 258 258 258 257 259 259 259 258 260 262 264 264 262 259 256 259 261 261 259 258 259 259 258 257 256 254 252 249 248 248 249 249 248 246 243 241 240 239 238 237 236 236 235 235 235 235 236 236 236 237 238 239 240 241 242 244 245 247 249 251 253 255 256
262 261 261 261 261 261 260 260 260 259 258 257 256 255 254 254 255 256 256 257 257 257 257 258 258 259 259 260 259 257 256 258 259 260 260 259 257 255 257 258 259 257 256 255 256 257 256 255 255 254 253 252 252 251 250 248 245 242 240 239 237 237 236 236 235 235 235 236 236 237 237 238 239 240 241 242 244 245 247 249 251 254 255 258 259 261
261 261 261 261 261 261 260 260 259 258 256 254 252 251 252 252 252 253 255 256 256 256 256 257 257 258 259 258 257 256 256 257 257 256 256 256 256 255 256 257 257 256 254 251 252 255 256 256 257 257 257 256 255 253 250 248 245 242 239 237 236 235 235 235 235 235 236 236 237 237 238 239 241 242 243 245 246 248 250 252 254 256 258 260 263 265
261 261 261 262 262 261 260 259 257 255 253 251 249 248 248 249 249 251 252 254 254 254 255 255 255 254 254 254 254 254 255 256 255 253 253 254 255 255 255 257 257 256 253 251 251 254 256 255 255 256 257 258 257 255 252 249 245 242 239 236 235 234 233 233 234 234 235 236 237 238 239 240 242 243 244 246 248 250 252 254 256 258 260 262 264 266
260 260 261 260 260 259 258 256 254 253 251 249 248 246 245 245 246 248 250 251 252 253 254 254 254 253 252 251 250 250 251 252 253 252 250 254 255 255 254 256 256 255 253 252 254 257 259 253 249 250 253 256 257 256 254 250 247 243 240 237 235 233 233 232 233 233 234 234 236 237 238 240 241 243 245 247 248 250 252 254 257 259 261 263 264 265
258 258 258 257 256 255 254 253 253 252 250 249 248 246 244 243 244 247 249 250 251 251 252 252 252 252 251 250 249 249 248 248 250 250 250 253 254 254 253 254 256 256 253 252 254 257 259 256 253 250 251 254 256 257 255 252 248 245 242 239 236 234 233 232 232 233 233 234 235 236 237 239 240 242 244 246 248 250 252 254 256 258 261 263 264 265
255 255 254 253 252 252 252 252 252 252 251 251 250 248 246 245 245 246 248 249 250 250 250 250 251 251 251 251 249 247 246 248 249 250 250 252 254 255 253 253 255 257 256 254 254 255 256 258 258 256 255 256 257 257 256 254 251 247 244 241 239 237 235 233 233 233 233 233 234 235 236 238 240 241 243 245 247 249 251 254 256 258 260 262 264 265
248 247 246 246 246 247 248 248 248 248 248 249 249 249 248 247 247 247 248 248 249 249 249 249 249 251 251 251 249 246 244 247 250 251 250 253 255 255 254 253 254 256 258 258 258 258 259 259 259 257 254 252 255 257 258 257 254 250 247 244 241 239 237 235 234 233 233 234 234 235 237 238 240 242 244 246 248 250 252 255 257 259 261 263 265 266
239 238 237 238 238 238 238 238 238 239 240 243 246 248 248 249 249 249 249 250 250 250 250 249 249 249 250 251 249 246 243 247 250 252 252 254 255 256 255 254 254 256 259 260 261 262 263 263 261 259 253 244 244 251 256 257 255 252 249 246 244 242 240 238 237 236 235 235 236 237 239 241 243 245 247 250 252 254 256 259 261 263 265 267 269 270
241 241 240 240 241 241 241 239 237 237 239 242 245 247 248 249 250 251 252 252 252 252 252 252 252 251 251 251 250 247 245 248 251 253 254 255 256 257 257 255 254 256 258 261 263 265 266 266 265 264 260 250 239 240 250 255 255 252 249 247 245 243 242 240 240 239 239 239 240 242 244 246 248 250 252 254 256 259 261 264 266 268 270 271 273 274
259 258 258 258 259 259 259 257 255 253 250 248 247 247 248 249 249 251 252 253 254 254 254 253 253 253 253 253 251 249 247 250 252 254 255 254 255 256 256 255 254 254 257 262 264 266 267 269 269 268 267 261 251 241 240 249 253 252 249 246 243 241 240 240 241 241 242 242 243 245 247 249 251 252 255 257 259 261 263 265 267 269 271 273 274 276
273 272 271 272 272 273 272 272 270 266 261 256 252 250 249 248 248 249 250 251 252 252 253 253 253 253 253 252 251 251 250 252 253 254 254 253 253 254 255 254 253 254 256 260 264 267 269 271 272 272 270 267 261 253 247 245 246 247 247 245 243 240 239 239 241 242 243 244 245 246 247 249 250 252 254 256 258 260 262 263 265 267 269 271 274 276
271 270 270 271 272 272 272 271 268 265 261 258 256 254 252 251 249 249 249 250 250 251 252 252 253 253 253 252 252 251 252 253 254 255 255 254 253 253 255 254 254 255 257 259 262 266 269 271 273 274 274 272 269 263 256 249 244 242 243 243 243 242 240 240 241 242 243 244 245 246 247 248 249 251 252 254 256 258 260 261 263 265 267 270 271 274
260 260 261 263 265 266 265 264 262 260 259 258 258 258 256 254 252 251 250 250 250 251 252 253 253 254 254 254 253 253 253 254 256 256 257 256 255 255 256 257 257 258 258 260 262 265 268 271 273 276 277 277 274 269 261 254 248 244 242 240 240 241 243 242 242 243 243 245 246 247 247 248 249 251 252 253 255 257 258 260 262 264 266 267 269 271
251 252 253 256 258 259 260 259 258 257 257 258 259 260 259 257 255 254 252 252 252 252 253 253 254 254 254 254 254 254 254 255 256 258 259 259 259 259 259 260 261 261 262 262 263 265 268 270 273 275 277 278 277 272 265 259 253 249 246 243 240 238 240 242 244 244 245 246 247 247 248 249 250 251 251 253 254 255 257 259 260 263 264 266 267 269
250 250 251 253 256 257 259 259 258 258 258 259 259 259 259 258 257 255 253 252 252 253 253 254 254 254 254 254 254 254 254 255 257 259 261 262 263 264 264 264 264 265 265 265 266 267 269 271 272 274 277 278 278 275 270 264 258 255 253 251 247 242 239 241 243 245 246 247 248 249 249 250 250 251 251 252 253 255 257 259 261 262 264 265 266 268
252 252 253 255 257 260 261 261 260 260 259 259 259 259 259 259 258 257 255 253 252 252 253 254 254 254 253 253 253 254 254 255 257 259 261 263 264 266 267 267 267 267 267 268 268 269 270 271 272 273 276 276 276 275 274 270 266 262 261 259 257 253 248 243 242 244 245 247 249 250 251 251 251 251 251 252 254 255 258 260 261 263 264 266 267 268
252 253 254 256 259 261 262 261 260 259 258 257 257 258 260 260 260 259 257 255 254 253 254 254 255 255 255 254 253 254 255 255 256 258 260 261 263 264 266 266 266 267 268 268 270 271 272 271 272 273 274 274 274 275 275 275 273 270 268 265 263 260 256 250 247 246 247 248 250 251 252 252 252 253 253 254 255 257 259 261 263 265 266 268 269 269
252 253 254 256 258 258 258 257 257 256 257 257 257 258 260 261 261 260 259 258 257 256 256 256 257 257 256 255 254 254 255 256 257 258 258 259 261 262 263 264 265 267 268 269 271 272 272 272 273 273 273 273 273 274 276 278 278 276 274 271 268 264 260 257 256 255 254 253 253 253 254 254 255 256 257 257 259 260 262 264 265 267 269 270 271 271
255 255 255 256 257 258 258 257 257 256 256 256 256 257 259 261 261 261 261 260 259 259 259 258 259 259 258 255 252 251 252 255 257 258 259 259 259 260 261 263 264 266 267 269 270 271 271 272 273 273 273 273 273 274 276 279 280 280 278 276 272 268 265 264 264 263 261 259 257 256 256 257 258 259 260 261 262 263 265 267 268 269 270 271 272 273
259 258 257 258 258 259 259 259 259 258 258 257 256 256 258 260 261 262 261 261 261 261 261 260 260 260 259 256 252 249 249 251 253 256 258 259 259 260 261 262 263 264 266 267 269 270 271 272 272 272 273 274 275 276 278 280 281 281 280 277 273 270 268 267 267 265 263 262 261 260 260 261 262 263 264 265 265 266 267 268 270 271 272 273 274 274
261 261 260 260 261 261 262 262 262 262 261 259 257 256 257 259 260 261 261 260 260 261 261 262 262 261 259 256 253 251 250 249 250 253 256 257 258 259 260 260 261 263 264 265 267 269 270 271 272 272 273 274 276 278 280 280 280 280 278 276 273 271 269 268 266 265 264 263 263 263 264 265 266 267 268 269 269 270 270 270 271 272 273 275 275 276
264 264 264 264 265 265 266 266 266 266 265 262 259 256 256 257 259 259 260 259 259 260 260 261 261 261 259 257 255 253 253 252 252 253 254 255 257 258 258 258 259 260 261 263 264 266 268 269 270 271 273 274 276 279 280 280 279 277 274 273 272 271 270 268 266 264 263 263 263 264 265 267 268 270 272 273 273 273 273 273 274 275 277 278 278 277
266 267 267 267 268 268 269 269 269 269 268 266 262 259 257 257 257 257 257 257 257 257 258 259 260 260 259 258 256 256 256 256 256 256 256 256 257 257 257 257 257 257 258 260 261 263 265 266 268 270 271 273 275 278 279 279 277 274 272 271 270 270 269 267 265 264 262 262 263 264 266 268 270 273 275 276 276 276 275 276 278 281 284 284 284 283
268 268 268 268 269 269 270 270 269 269 268 267 265 262 260 258 257 256 255 254 254 255 255 256 257 258 259 259 258 258 258 259 260 260 260 259 259 259 258 258 258 258 259 260 261 263 264 266 268 269 271 273 274 276 276 277 276 274 272 270 269 268 267 266 264 263 263 263 264 265 267 269 272 274 276 278 279 280 280 281 283 286 289 290 290 290
Height
1523 1524 1524 1524 1525 1525 1525 1525 1525 1525 1525 1524 1524 1524 1524 1524 1524 1524 1524 1524 1524 1524 1524 1523 1523 1523 1523 1523 1524 1524 1524 1524 1524 1524 1523 1523 1523 1523 1523 1523 1523 1523 1523 1523 1524 1524 1524 1524 1524 1525 1525 1525 1525 1526 1526 1526 1527 1527 1527 1527 1528 1528 1528 1528 1527 1527 1527 1526 1526 1526 1525 1525 1525 1525 1525 1525 1524 1524 1524 1524 1524 1524 1524 1524 1524 1524
1522 1522 1522 1522 1523 1523 1523 1523 1524 1524 1524 1523 1523 1522 1522 1522 1522 1522 1523 1523 1522 1522 1522 1522 1522 1522 1522 1523 1523 1523 1523 1523 1523 1523 1523 1523 1522 1522 1522 1522 1522 1522 1522 1522 1523 1523 1523 1523 1524 1524 1524 1524 1525 1525 1525 1525 1526 1526 1526 1526 1526 1526 1526 1526 1526 1526 1525 1525 1524 1524 1524 1524 1524 1523 1523 1523 1523 1523 1523 1522 1522 1522 1522 1523 1523 1523
1520 1521 1521 1521 1521 1521 1521 1521 1522 1522 1522 1522 1521 1521 1521 1521 1521 1521 1521 1521 1521 1521 1521 1521 1521 1521 1521 1521 1521 1522 1522 1522 1522 1522 1522 1522 1521 1521 1521 1521 1521 1521 1521 1521 1521 1522 1522 1522 1522 1523 1523 1523 1523 1524 1524 1524 1524 1524 1524 1524 1524 1524 1524 1524 1524 1524 1523 1523 1523 1522 1522 1522 1522 1522 1522 1522 1521 1521 1521 1521 1521 1521 1521 1521 1522 1522
1518 1519 1519 1519 1520 1520 1520 1520 1520 1521 1521 1521 1520 1520 1519 1519 1519 1520 1520 1520 1520 1520 1520 1520 1520 1520 1520 1520 1521 1521 1521 1521 1521 1521 1521 1521 1521 1520 1520 1520 1520 1520 1520 1521 1521 1521 1521 1521 1521 1521 1522 1522 1522 1522 1522 1522 1522 1523 1523 1523 1523 1522 1522 1522 1522 1522 1521 1521 1521 1521 1521 1521 1521 1521 1520 1520 1520 1520 1520 1520 1520 1520 1520 1521 1521 1521
1517 1517 1518 1518 1518 1519 1519 1519 1519 1519 1519 1519 1519 1518 1518 1518 1518 1518 1518 1519 1519 1519 1519 1519 1519 1519 1519 1519 1519 1519 1520 1520 1520 1520 1520 1520 1520 1519 1519 1519 1519 1519 1519 1520 1520 1520 1520 1520 1520 1520 1520 1521 1521 1521 1521 1521 1521 1521 1521 1521 1521 1521 1521 1520 1520 1520 1520 1520 1520 1519 1519 1519 1519 1519 1519 1519 1518 1518 1518 1518 1519 1519 1519 1519 1519 1519
1516 1516 1516 1517 1517 1517 1517 1517 1517 1517 1517 1517 1517 1517 1517 1517 1517 1517 1517 1517 1517 1517 1517 1518 1518 1518 1518 1518 1518 1518 1518 1518 1519 1519 1519 1519 1519 1518 1518 1518 1518 1518 1518 1518 1519 1519 1519 1519 1519 1519 1519 1519 1519 1519 1519 1519 1519 1519 1519 1519 1519 1519 1519 1519 1518 1518 1518 1518 1518 1518 1518 1518 1517 1517 1517 1517 1517 1517 1517 1517 1517 1517 1517 1518 1518 1518
1514 1515 1515 1515 1515 1516 1516 1516 1516 1516 1516 1516 1516 1516 1516 1516 1516 1516 1516 1516 1516 1516 1516 1516 1517 1517 1517 1517 1517 1517 1517 1517 1517 1517 1517 1517 1517 1517 1517 1517 1517 1517 1517 1517 1517 1517 1517 1518 1518 1518 1518 1518 1518 1517 1517 1517 1517 1518 1518 1517 1517 1517 1517 1517 1517 1517 1517 1517 1517 1516 1516 1516 1516 1516 1516 1516 1516 1516 1516 1516 1516 1516 1516 1516 1516 1516
1513 1513 1513 1513 1514 1514 1514 1514 1514 1514 1514 1514 1514 1514 1514 1514 1514 1515 1515 1515 1515 1515 1515 1516 1516 1516 1516 1516 1516 1516 1516 1516 1516 1516 1516 1516 1516 1516 1516 1516 1516 1516 1516 1516 1516 1516 1516 1516 1516 1516 1516 1516 1516 1516 1516 1516 1516 1516 1516 1516 1516 1516 1516 1516 1516 1516 1516 1516 1516 1515 1515 1515 1515 1515 1515 1515 1515 1515 1515 1515 1515 1515 1515 1515 1515 1515
1511 1511 1511 1512 1512 1512 1512 1512 1512 1512 1513 1513 1513 1513 1513 1513 1513 1513 1514 1514 1514 1514 1514 1514 1514 1515 1515 1515 1515 1515 1515 1515 1515 1515 1515 1515 1515 1514 1514 1514 1514 1514 1515 1515 1515 1515 1515 1515 1515 1515 1515 1515 1515 1515 1515 1515 1515 1515 1515 1515 1515 1515 1514 1514 1514 1514 1514 1514 1514 1514 1514 1514 1514 1514 1513 1513 1513 1513 1513 1513 1513 1513 1513 1513 1513 1513
1509 1510 1510 1510 1511 1511 1511 1511 1511 1511 1511 1511 1511 1511 1511 1512 1512 1512 1512 1512 1512 1513 1513 1513 1513 1513 1514 1514 1514 1514 1514 1513 1513 1513 1513 1513 1513 1513 1513 1513 1513 1513 1513 1513 1513 1513 1513 1513 1513 1513 1513 1513 1513 1513 1513 1513 1513 1513 1513 1513 1513 1513 1513 1513 1513 1513 1513 1513 1513 1513 1512 1512 1512 1512 1512 1512 1512 1512 1512 1512 1512 1512 1512 1512 1512 1512
1508 1508 1508 1509 1509 1509 1510 1510 1510 1510 1510 1510 1510 1510 1510 1511 1511 1511 1511 1511 1511 1511 1512 1512 1512 1512 1512 1512 1512 1512 1512 1512 1512 1512 1512 1512 1512 1512 1512 1512 1512 1512 1512 1512 1512 1512 1512 1512 1512 1512 1512 1512 1512 1512 1512 1512 1512 1512 1512 1512 1512 1511 1511 1511 1511 1511 1511 1511 1511 1511 1511 1511 1511 1511 1511 1511 1511 1511 1511 1511 1511 1511 1511 1511 1511 1511
1506 1507 1507 1507 1507 1508 1508 1508 1508 1508 1508 1509 1509 1509 1509 1509 1510 1510 1510 1510 1510 1511 1511 1511 1511 1511 1511 1511 1511 1511 1511 1511 1511 1510 1511 1511 1511 1511 1511 1511 1511 1511 1511 1511 1511 1511 1511 1511 1511 1511 1511 1511 1511 1511 1510 1510 1510 1510 1510 1510 1510 1510 1510 1510 1510 1510 1510 1510 1510 1510 1510 1509 1509 1509 1509 1509 1509 1509 1509 1509 1509 1509 1509 1509 1509 1509
1505 1505 1506 1506 1506 1506 1506 1507 1507 1507 1507 1507 1507 1508 1508 1508 1509 1509 1509 1509 1509 1509 1510 1510 1509 1509 1510 1510 1510 1510 1509 1509 1509 1509 1509 1509 1509 1509 1509 1509 1509 1509 1510 1510 1510 1510 1509 1509 1509 1509 1509 1509 1509 1509 1509 1509 1509 1509 1509 1509 1509 1508 1508 1508 1508 1508 1508 1508 1508 1508 1508 1508 1508 1508 1508 1508 1508 1508 1508 1508 1508 1508 1508 1508 1508 1508
1504 1504 1504 1505 1505 1505 1505 1505 1506 1506 1506 1506 1507 1507 1507 1507 1508 1508 1508 1508 1508 1508 1509 1509 1508 1508 1508 1508 1508 1508 1508 1508 1508 1508 1508 1508 1508 1508 1508 1508 1508 1508 1508 1508 1508 1508 1508 1508 1508 1508 1508 1508 1508 1508 1508 1508 1508 1507 1507 1507 1507 1507 1507 1507 1507 1507 1507 1507 1506 1506 1506 1506 1506 1506 1506 1506 1506 1506 1506 1506 1506 1506 1507 1507 1507 1507
1502 1503 1503 1503 1503 1504 1504 1504 1504 1505 1505 1506 1506 1506 1506 1506 1506 1507 1507 1507 1507 1507 1507 1507 1507 1507 1507 1507 1507 1507 1507 1507 1507 1507 1507 1507 1507 1507 1507 1507 1507 1507 1507 1507 1507 1507 1507 1507 1507 1506 1506 1506 1506 1506 1506 1506 1506 1506 1506 1506 1506 1506 1506 1506 1506 1506 1506 1505 1505 1505 1505 1505 1505 1505 1505 1505 1505 1505 1506 1506 1506 1506 1506 1506 1506 1506
1501 1501 1501 1502 1502 1502 1503 1503 1504 1504 1504 1505 1505 1505 1505 1505 1505 1506 1506 1506 1506 1506 1506 1506 1506 1506 1506 1506 1506 1506 1506 1506 1506 1506 1506 1506 1506 1506 1506 1506 1506 1506 1506 1506 1506 1506 1506 1506 1506 1505 1505 1505 1505 1505 1505 1505 1505 1505 1505 1505 1505 1504 1504 1504 1504 1504 1504 1504 1504 1504 1504 1504 1504 1504 1504 1504 1504 1505 1505 1505 1505 1505 1505 1505 1506 1506
1500 1500 1500 1501 1501 1501 1502 1502 1503 1503 1503 1504 1504 1504 1504 1504 1504 1504 1504 1504 1504 1504 1504 1504 1504 1504 1504 1505 1505 1505 1505 1505 1505 1505 1505 1505 1505 1505 1505 1505 1505 1505 1505 1505 1505 1505 1505 1504 1504 1504 1504 1504 1504 1504 1504 1504 1504 1504 1503 1503 1503 1503 1503 1503 1503 1503 1503 1503 1503 1503 1503 1503 1503 1503 1503 1504 1504 1504 1504 1504 1504 1504 1505 1505 1505 1505
1498 1499 1499 1500 1500 1500 1501 1501 1501 1502 1502 1502 1503 1503 1503 1503 1503 1503 1503 1502 1502 1502 1502 1502 1503 1503 1503 1503 1504 1504 1504 1504 1504 1504 1504 1504 1504 1504 1503 1503 1503 1503 1504 1504 1504 1503 1503 1503 1503 1503 1503 1503 1503 1503 1503 1502 1502 1502 1502 1502 1502 1502 1502 1502 1502 1502 1502 1502 1502 1502 1502 1502 1502 1503 1503 1503 1503 1503 1503 1504 1504 1504 1504 1504 1505 1505
1497 1498 1498 1498 1499 1499 1500 1500 1501 1501 1501 1501 1501 1502 1502 1502 1502 1502 1501 1501 1501 1501 1501 1501 1501 1501 1501 1502 1502 1502 1502 1502 1502 1503 1503 1503 1503 1503 1502 1502 1502 1502 1502 1502 1502 1502 1502 1502 1502 1502 1502 1502 1501 1501 1501 1501 1501 1501 1501 1501 1501 1502 1501 1501 1501 1501 1501 1501 1501 1501 1501 1502 1502 1502 1502 1502 1502 1503 1503 1503 1503 1504 1504 1504 1504 1505
1496 1496 1497 1497 1498 1498 1498 1499 1499 1500 1500 1500 1500 1500 1500 1500 1500 1500 1500 1500 1500 1500 1500 1500 1500 1500 1500 1500 1501 1501 1501 1501 1501 1501 1501 1502 1502 1502 1501 1501 1501 1501 1501 1501 1501 1501 1501 1501 1501 1501 1501 1501 1501 1501 1501 1501 1501 1501 1501 1501 1501 1501 1501 1501 1501 1501 1501 1501 1501 1501 1501 1501 1501 1501 1502 1502 1502 1502 1502 1503 1503 1503 1504 1504 1504 1504
1495 1496 1496 1496 1496 1497 1497 1497 1498 1498 1498 1498 1498 1498 1498 1498 1499 1499 1499 1499 1499 1499 1499 1499 1498 1498 1499 1499 1499 1500 1500 1500 1500 1500 1500 1500 1501 1501 1500 1500 1500 1500 1500 1500 1500 1500 1500 1500 1500 1500 1500 1500 1500 1500 1500 1500 1500 1500 1500 1500 1500 1500 1500 1500 1500 1500 1500 1500 1500 1501 1501 1501 1501 1501 1501 1501 1501 1502 1502 1502 1502 1503 1503 1503 1504 1504
1494 1494 1495 1495 1495 1496 1496 1496 1496 1496 1497 1497 1497 1496 1496 1497 1497 1497 1497 1497 1497 1497 1497 1497 1497 1497 1497 1498 1498 1498 1498 1498 1498 1498 1498 1499 1499 1499 1499 1499 1499 1499 1499 1499 1499 1499 1499 1499 1499 1499 1499 1499 1499 1499 1499 1499 1499 1499 1499 1499 1499 1499 1499 1499 1499 1499 1500 1500 1500 1500 1500 1500 1501 1501 1501 1501 1501 1501 1501 1502 1502 1502 1503 1503 1503 1504
1493 1493 1493 1494 1494 1494 1494 1494 1495 1495 1495 1495 1495 1495 1495 1495 1495 1495 1495 1496 1496 1496 1496 1496 1496 1496 1496 1496 1496 1496 1497 1497 1497 1497 1497 1497 1497 1498 1497 1497 1498 1498 1498 1498 1498 1498 1498 1498 1498 1498 1498 1498 1498 1498 1498 1498 1498 1498 1498 1498 1498 1498 1498 1499 1499 1499 1499 1499 1499 1499 1500 1500 1500 1500 1500 1501 1501 1501 1501 1501 1501 1502 1502 1502 1503 1503
1492 1492 1492 1492 1492 1492 1492 1493 1493 1493 1493 1493 1494 1494 1494 1494 1494 1494 1494 1494 1494 1494 1495 1495 1495 1495 1495 1495 1495 1495 1496 1496 1496 1496 1496 1496 1496 1496 1496 1496 1496 1497 1497 1497 1497 1497 1497 1497 1497 1497 1497 1497 1497 1497 1497 1497 1497 1497 1498 1498 1498 1498 1498 1498 1498 1498 1498 1498 1499 1499 1499 1499 1499 1500 1500 1500 1500 1500 1501 1501 1501 1501 1501 1502 1502 1502
1491 1491 1491 1491 1491 1491 1491 1491 1491 1491 1491 1492 1492 1492 1492 1492 1492 1492 1492 1492 1493 1493 1493 1493 1493 1494 1494 1494 1494 1494 1494 1495 1495 1495 1495 1495 1495 1496 1496 1496 1496 1496 1496 1496 1496 1496 1496 1496 1496 1496 1496 1496 1496 1496 1496 1496 1497 1497 1497 1497 1497 1497 1497 1497 1497 1497 1498 1498 1498 1498 1498 1499 1499 1499 1499 1499 1500 1500 1500 1500 1500 1501 1501 1501 1501 1502
1489 1489 1489 1490 1490 1490 1490 1490 1490 1490 1490 1490 1491 1491 1491 1491 1491 1491 1491 1491 1491 1491 1492 1492 1492 1492 1493 1493 1493 1493 1493 1493 1493 1493 1494 1494 1494 1494 1495 1495 1495 1495 1495 1495 1495 1495 1495 1495 1496 1496 1496 1496 1496 1496 1496 1496 1496 1496 1496 1496 1496 1496 1496 1496 1497 1497 1497 1497 1497 1498 1498 1498 1498 1498 1498 1499 1499 1499 1499 1499 1500 1500 1500 1500 1501 1501
1488 1488 1488 1488 1488 1488 1488 1488 1489 1489 1489 1489 1489 1489 1489 1489 1490 1490 1490 1490 1490 1490 1490 1491 1491 1491 1491 1491 1492 1492 1492 1492 1492 1492 1493 1493 1493 1493 1494 1494 1494 1494 1494 1494 1494 1494 1494 1495 1495 1495 1495 1495 1495 1495 1495 1495 1495 1495 1495 1495 1495 1496 1496 1496 1496 1496 1496 1496 1497 1497 1497 1497 1497 1497 1498 1498 1498 1498 1498 1499 1499 1499 1499 1499 1500 1500
1486 1486 1486 1486 1487 1487 1487 1487 1487 1487 1488 1488 1488 1488 1488 1488 1488 1488 1488 1488 1489 1489 1489 1489 1489 1490 1490 1490 1491 1491 1491 1491 1491 1491 1492 1492 1492 1492 1493 1493 1493 1493 1493 1493 1493 1493 1493 1494 1494 1494 1494 1494 1494 1494 1494 1494 1494 1494 1494 1494 1495 1495 1495 1495 1495 1495 1496 1496 1496 1496 1496 1496 1496 1497 1497 1497 1497 1497 1497 1498 1498 1498 1498 1498 1498 1499
1485 1485 1485 1485 1486 1486 1486 1486 1486 1486 1486 1486 1486 1487 1487 1487 1487 1487 1487 1487 1487 1487 1487 1488 1488 1489 1489 1489 1489 1490 1490 1490 1491 1491 1491 1491 1491 1491 1491 1492 1492 1492 1492 1492 1492 1492 1492 1493 1493 1493 1493 1493 1493 1493 1493 1493 1493 1493 1494 1494 1494 1494 1494 1494 1494 1495 1495 1495 1495 1495 1495 1496 1496 1496 1496 1496 1496 1496 1496 1497 1497 1497 1497 1497 1497 1497
1483 1484 1484 1484 1484 1484 1485 1485 1485 1485 1485 1485 1485 1486 1486 1486 1486 1486 1486 1486 1486 1486 1486 1487 1487 1487 1488 1488 1488 1489 1489 1489 1490 1490 1490 1490 1490 1490 1491 1491 1491 1491 1491 1491 1491 1491 1491 1492 1492 1492 1492 1492 1492 1492 1492 1492 1492 1492 1493 1493 1493 1493 1493 1493 1493 1494 1494 1494 1494 1494 1494 1495 1495 1495 1495 1495 1495 1496 1496 1496 1496 1496 1496 1496 1496 1496
1482 1482 1482 1483 1483 1483 1483 1483 1484 1484 1484 1484 1484 1484 1485 1485 1485 1485 1485 1485 1485 1485 1486 1486 1486 1486 1487 1487 1487 1488 1488 1488 1489 1489 1489 1489 1489 1489 1490 1490 1490 1490 1490 1490 1491 1491 1491 1491 1491 1491 1491 1491 1491 1491 1491 1491 1491 1491 1492 1492 1492 1492 1492 1492 1493 1493 1493 1493 1493 1493 1493 1494 1494 1494 1494 1494 1494 1495 1495 1495 1495 1495 1495 1495 1495 1495
1481 1481 1481 1481 1482 1482 1482 1482 1482 1482 1482 1483 1483 1483 1483 1483 1484 1484 1484 1484 1484 1484 1485 1485 1485 1486 1486 1486 1486 1487 1487 1487 1487 1487 1488 1487 1488 1488 1488 1489 1489 1489 1489 1489 1489 1489 1490 1490 1490 1490 1490 1490 1490 1490 1490 1490 1491 1491 1491 1491 1491 1491 1491 1491 1492 1492 1492 1492 1492 1492 1493 1493 1493 1493 1493 1493 1493 1493 1494 1494 1494 1494 1494 1494 1494 1494
1480 1480 1480 1481 1481 1481 1481 1481 1481 1481 1481 1481 1481 1482 1482 1482 1482 1482 1483 1483 1483 1483 1484 1484 1484 1484 1485 1485 1485 1486 1486 1486 1486 1486 1486 1486 1486 1487 1487 1487 1487 1488 1488 1488 1488 1488 1488 1488 1489 1489 1489 1489 1489 1489 1489 1489 1489 1490 1490 1490 1490 1490 1490 1491 1491 1491 1491 1491 1491 1491 1491 1492 1492 1492 1492 1492 1492 1492 1492 1492 1493 1492 1492 1492 1492 1492
1479 1479 1479 1480 1480 1480 1480 1480 1480 1480 1480 1480 1481 1481 1481 1481 1481 1481 1482 1482 1482 1482 1482 1483 1483 1483 1483 1484 1484 1485 1485 1485 1485 1485 1485 1485 1485 1486 1486 1486 1486 1486 1486 1486 1487 1487 1487 1487 1488 1488 1488 1488 1488 1488 1488 1488 1488 1488 1489 1489 1489 1489 1489 1489 1490 1490 1490 1490 1490 1490 1491 1491 1491 1491 1491 1491 1491 1491 1491 1491 1491 1491 1491 1491 1491 1491
1478 1478 1479 1479 1479 1479 1479 1479 1479 1479 1479 1479 1479 1480 1480 1480 1480 1480 1481 1481 1481 1481 1481 1482 1482 1482 1482 1483 1483 1484 1484 1484 1484 1484 1484 1484 1484 1485 1485 1485 1486 1486 1486 1486 1486 1486 1486 1486 1486 1486 1487 1487 1487 1487 1487 1487 1487 1487 1487 1487 1488 1488 1488 1488 1488 1488 1489 1489 1489 1489 1489 1489 1489 1490 1490 1490 1490 1490 1490 1490 1490 1490 1490 1489 1489 1489
1477 1477 1477 1477 1477 1477 1478 1478 1478 1478 1478 1478 1478 1479 1479 1479 1479 1479 1479 1480 1480 1480 1480 1481 1481 1481 1481 1482 1482 1482 1483 1483 1483 1483 1483 1483 1484 1484 1484 1484 1484 1485 1484 1484 1484 1484 1484 1485 1485 1485 1486 1486 1486 1486 1486 1486 1486 1486 1486 1486 1486 1487 1487 1487 1487 1487 1487 1487 1488 1488 1488 1488 1488 1488 1488 1488 1488 1488 1488 1488 1488 1488 1488 1487 1487 1487
1476 1476 1476 1476 1476 1476 1476 1476 1477 1477 1477 1477 1477 1478 1478 1478 1478 1478 1478 1478 1479 1479 1479 1480 1480 1480 1480 1481 1481 1481 1481 1481 1482 1482 1482 1482 1482 1483 1483 1483 1483 1483 1483 1483 1483 1483 1483 1483 1483 1484 1484 1485 1485 1485 1485 1485 1485 1485 1485 1485 1485 1485 1486 1486 1486 1486 1486 1486 1486 1486 1486 1486 1486 1486 1486 1486 1486 1486 1486 1486 1486 1486 1486 1486 1486 1485
1474 1474 1475 1475 1475 1475 1475 1476 1476 1476 1476 1476 1476 1477 1477 1477 1477 1477 1477 1477 1478 1478 1478 1478 1479 1479 1479 1480 1480 1480 1480 1481 1481 1481 1481 1481 1481 1481 1481 1482 1482 1482 1482 1482 1482 1481 1482 1482 1482 1482 1482 1483 1483 1484 1484 1484 1484 1484 1484 1484 1484 1484 1484 1484 1484 1484 1484 1485 1485 1485 1485 1485 1485 1485 1485 1485 1485 1485 1485 1485 1485 1484 1484 1484 1484 1484
1473 1474 1474 1474 1474 1474 1474 1475 1475 1475 1475 1475 1476 1476 1476 1476 1476 1476 1476 1476 1477 1477 1477 1477 1477 1478 1478 1478 1479 1479 1479 1479 1480 1480 1480 1480 1480 1481 1481 1481 1481 1481 1481 1481 1481 1481 1480 1480 1480 1481 1481 1481 1482 1482 1482 1483 1483 1483 1483 1482 1483 1483 1483 1483 1483 1483 1483 1483 1483 1483 1484 1483 1483 1483 1483 1483 1483 1483 1483 1483 1483 1483 1482 1482 1482 1482
1473 1473 1473 1473 1473 1473 1473 1474 1474 1474 1474 1474 1475 1475 1475 1475 1475 1475 1476 1476 1476 1476 1476 1476 1476 1477 1477 1477 1478 1478 1478 1478 1478 1479 1479 1479 1479 1479 1479 1479 1479 1480 1480 1479 1479 1479 1479 1479 1479 1479 1479 1480 1480 1480 1481 1481 1481 1481 1481 1481 1481 1481 1481 1481 1481 1481 1481 1481 1482 1482 1482 1482 1482 1482 1482 1482 1482 1481 1481 1481 1481 1481 1481 1481 1480 1480
1472 1472 1472 1472 1472 1472 1472 1473 1473 1473 1473 1473 1473 1473 1474 1474 1474 1474 1474 1475 1475 1475 1475 1475 1476 1476 1476 1476 1477 1477 1477 1477 1477 1477 1478 1478 1478 1478 1478 1478 1478 1478 1478 1478 1478 1478 1478 1478 1478 1478 1478 1478 1478 1478 1478 1479 1480 1480 1480 1480 1480 1480 1480 1480 1480 1480 1480 1480 1480 1480 1480 1480 1480 1480 1480 1480 1480 1480 1480 1480 1480 1479 1479 1479 1479 1478
1471 1471 1471 1471 1471 1471 1471 1471 1472 1472 1472 1472 1472 1472 1472 1473 1473 1473 1473 1473 1474 1474 1474 1474 1474 1475 1475 1475 1476 1476 1476 1476 1476 1476 1476 1476 1477 1477 1477 1477 1477 1477 1477 1476 1476 1476 1476 1476 1476 1476 1476 1476 1476 1476 1476 1477 1478 1478 1478 1478 1478 1478 1479 1479 1479 1478 1478 1478 1478 1478 1479 1479 1479 1479 1479 1478 1478 1478 1478 1478 1478 1478 1477 1477 1477 1476
1470 1470 1470 1470 1470 1470 1470 1471 1471 1471 1471 1471 1471 1471 1471 1471 1471 1472 1472 1472 1472 1472 1473 1473 1473 1473 1473 1474 1474 1474 1475 1475 1475 1475 1475 1475 1475 1475 1475 1476 1476 1475 1475 1475 1475 1475 1475 1475 1475 1475 1475 1475 1474 1474 1474 1475 1476 1476 1477 1477 1476 1476 1477 1477 1477 1477 1477 1477 1477 1477 1477 1477 1477 1477 1477 1477 1477 1477 1476 1476 1476 1476 1476 1475 1475 1474
1469 1469 1469 1469 1469 1469 1469 1470 1470 1470 1470 1470 1470 1470 1470 1471 1471 1471 1471 1471 1471 1471 1471 1471 1471 1472 1472 1472 1473 1473 1473 1473 1473 1474 1474 1474 1474 1474 1474 1474 1474 1474 1474 1473 1473 1473 1473 1473 1473 1474 1474 1473 1473 1472 1472 1473 1474 1475 1475 1475 1475 1475 1475 1475 1475 1475 1475 1475 1475 1475 1475 1475 1475 1475 1475 1475 1475 1475 1475 1474 1474 1474 1473 1473 1473 1472
1468 1468 1468 1468 1468 1468 1468 1468 1469 1469 1469 1469 1469 1469 1469 1469 1469 1470 1470 1470 1470 1470 1470 1470 1470 1471 1471 1471 1471 1472 1471 1471 1472 1472 1472 1472 1472 1472 1472 1472 1472 1472 1472 1472 1472 1472 1472 1471 1472 1472 1472 1471 1471 1471 1471 1471 1472 1472 1473 1473 1473 1473 1472 1473 1473 1473 1473 1473 1473 1473 1473 1473 1472 1472 1473 1473 1473 1473 1472 1472 1472 1471 1471 1471 1470 1470
1466 1466 1466 1467 1467 1467 1467 1467 1467 1468 1468 1468 1468 1468 1468 1468 1468 1468 1469 1469 1469 1469 1469 1469 1469 1469 1469 1470 1470 1470 1470 1470 1470 1470 1471 1471 1471 1471 1471 1471 1471 1471 1471 1471 1470 1470 1470 1470 1470 1470 1470 1469 1469 1469 1470 1470 1470 1471 1471 1471 1471 1471 1471 1471 1471 1471 1471 1471 1471 1471 1470 1470 1470 1470 1470 1471 1471 1471 1470 1470 1470 1469 1469 1468 1468 1468
1465 1465 1465 1466 1466 1466 1466 1466 1466 1466 1466 1466 1467 1467 1467 1467 1467 1467 1467 1467 1467 1467 1467 1467 1467 1468 1468 1468 1469 1469 1469 1469 1469 1469 1469 1469 1469 1469 1470 1470 1470 1469 1469 1469 1469 1469 1468 1468 1468 1468 1468 1467 1467 1467 1468 1468 1469 1469 1469 1469 1468 1468 1468 1469 1469 1469 1468 1468 1468 1468 1468 1468 1468 1468 1468 1468 1468 1468 1468 1468 1467 1467 1466 1466 1466 1466
1464 1464 1464 1464 1464 1464 1464 1465 1465 1465 1465 1465 1465 1466 1466 1465 1466 1466 1466 1466 1466 1466 1466 1466 1466 1466 1466 1467 1467 1467 1467 1467 1468 1468 1468 1468 1468 1468 1468 1468 1468 1468 1468 1467 1467 1467 1467 1466 1466 1466 1466 1466 1465 1465 1466 1466 1467 1467 1466 1466 1466 1466 1466 1466 1467 1466 1466 1466 1466 1466 1466 1466 1466 1466 1466 1466 1466 1466 1466 1466 1465 1465 1464 1464 1464 1463
1463 1463 1463 1463 1463 1463 1463 1463 1463 1463 1463 1464 1464 1464 1464 1464 1464 1464 1464 1464 1464 1464 1464 1464 1464 1465 1465 1465 1466 1466 1466 1466 1466 1466 1466 1466 1466 1466 1466 1466 1466 1466 1466 1466 1466 1465 1465 1465 1464 1464 1464 1464 1464 1464 1464 1464 1465 1465 1464 1464 1464 1464 1464 1464 1465 1464 1464 1464 1464 1464 1463 1463 1463 1463 1463 1463 1463 1463 1463 1463 1463 1462 1462 1462 1461 1461
1461 1461 1461 1461 1461 1462 1462 1462 1462 1462 1462 1462 1462 1462 1462 1462 1462 1463 1463 1463 1463 1463 1463 1463 1463 1463 1463 1463 1464 1464 1464 1464 1464 1465 1465 1465 1465 1465 1465 1465 1465 1465 1464 1464 1464 1464 1463 1463 1462 1462 1463 1463 1463 1462 1462 1462 1462 1462 1462 1462 1462 1462 1462 1462 1462 1462 1462 1462 1462 1461 1461 1461 1461 1461 1461 1461 1461 1460 1460 1460 1460 1460 1460 1459 1459 1459
1460 1460 1460 1460 1460 1460 1460 1460 1460 1461 1461 1461 1461 1461 1461 1461 1461 1461 1461 1461 1461 1461 1461 1461 1461 1461 1461 1462 1462 1462 1462 1462 1462 1463 1463 1463 1463 1463 1463 1463 1463 1463 1462 1462 1462 1462 1461 1461 1461 1461 1461 1461 1462 1461 1461 1460 1460 1460 1460 1460 1460 1460 1460 1460 1460 1460 1460 1460 1460 1460 1460 1460 1460 1459 1459 1459 1458 1458 1457 1457 1457 1457 1457 1456 1456 1456